Location: *
(47.8307°S, 178.3954°E)
Time: 22:45:46
(UTC+00:00)

Cosmos 2150 Rocket - Pass Details

Date: 12 August 2024
Orbit: 747 x 804 km, 74.0° (Epoch: 19 September)

Event Time Altitude Azimuth Distance (km) Brightness Sun altitude
Exits shadow 17:12:04 23° 328° (NNW) 1,563 5.3 -20.7°
Maximum altitude 17:15:19 74° 246° (WSW) 795 3.8 -20.2°
Drops below altitude 10° 17:20:35 10° 160° (SSE) 2,320 6.7 -19.3°
Sets 17:23:00 0° 158° (SSE) 3,259 7.5 -18.9°
